星链-5418 (STARLINK-5418 )

导读 | 星芒AI

STARLINK-5418 是 SpaceX Starlink 项目中的一颗低轨通信卫星,属于第二代 Starlink 卫星(Gen2)批次。该卫星于 2024 年发射,旨在为全球用户提供高速、低延迟的互联网服务。它运行在约 550 公里的轨道高度,采用先进通信技术,支持更广的覆盖范围和更高的数据传输效率。作为 Starlink 卫星群的一部分,STARLINK-5418 有助于提升偏远地区的网络接入能力,并推动全球宽带服务的普及。

基本信息
目录编号:
54852
目录名称:
STARLINK-5418
国际标识:
2022-177AJ
轨道中心:
EARTH
卫星名称:
星链-5418
卫星全名:
星链-5418 (STARLINK-5418 )
卫星状态:
在轨 (已飞行1042 天)
发射日期:
2022-12-28 UTC
国别 :
美国 (US)
星等 :
--
轨道信息
数据来源 国际轨道数据 AOE轨道数据
星历时间 2025-11-03T23:37:46+0800
1天前
查看轨道信息
2025-10-30T09:00:00+0800
5天前
查看轨道信息
半长轴 6937.228km 6937.214km
偏心率 0.000134 0.0001408
轨道倾角 43.003° 43.003°
近地点辐角 266.970° 257.806°
升交点赤经 85.364° 110.418°
平近点角 93.099° 340.022°
近地点 558.163km 558.102km
远地点 560.023km 560.056km
周期 95.838分钟 95.838分钟
每日圈数 15.025325 15.025371
详细信息
固有亮度:
5
最大亮度:
2.5
卫星平台:
Starlink v1.5
覆盖范围:
全球
运营商:
太空探索技术公司
运营商所在国:
美国
制造商(研发单位):
太空探索技术公司
制造商所在国:
美国
使用方式:
暂无
卫星简介
星链(Starlink)计划是由太空探索技术公司(SpaceX)提出的一个巨型低轨卫星互联网星座项目,计划在2019年至2024年间在太空搭建由约1.2万颗卫星组成的“星链”网络,其中1584颗将部署在地球上空550千米处的近地轨道,并从2020年开始工作。该卫星仍在工作。
2D轨道图
3D轨道图
轨道高度分析图
轨道倾角分析图
轨道综合分析图
查看轨道综合分析图